[[{"header":{"parameterUnit":"m.s-1","parameterCategory":1,"la1":30.2991,"la2":30.254,"lo1":-89.0895,"lo2":-89.0444,"dy":0.0017,"dx":0.0017,"nx":28,"ny":28,"refTime":"2023-09-12T21:00:00:Z","depth":0,"parameterNumber":2,"parameterNumberName":"U-component_of_WINDS"},"data":[0,0,0,0,0,0,0,0,0,0,0,0,0,0,0,0,0,0,0,0,0,0,0,0,0,0,0,0,0,0,0,0,0,0,0,0,0,0,0,0,0,0,0,0,0,0,0,0,0,0,0,0,0,0,0,0,0,0,-1.2747,-1.2746,0,-1.2681,-1.268,-1.2679,-1.2591,-1.259,-1.2588,-1.2587,-1.252,-1.2519,-1.2519,0,0,0,0,0,0,0,0,0,0,0,0,0,-1.2797,-1.2797,-1.2747,-1.2746,-1.2745,-1.2681,-1.268,-1.2679,-1.2592,-1.259,-1.2588,-1.2586,-1.252,-1.2519,-1.2519,0,0,0,0,0,0,0,0,0,0,0,0,0,-1.2758,-1.2797,-1.2747,-1.2694,-1.2689,-1.2681,-1.268,-1.2679,-1.2592,-1.259,-1.2588,-1.2586,-1.252,-1.252,-1.2519,-1.2558,0,0,-1.2517,-1.2517,0,0,0,0,0,0,0,0,-1.276,-1.2756,-1.2703,-1.2698,-1.2692,-1.2642,-1.2673,-1.2638,-1.2592,-1.2629,-1.2587,-1.2584,-1.2562,-1.2558,-1.255,-1.2555,-1.2552,-1.2517,-1.2516,-1.2516,-1.2516,0,0,0,0,0,0,0,-1.2763,-1.2758,-1.2721,-1.2702,-1.2695,-1.2673,-1.2665,-1.2666,-1.2609,-1.2625,-1.2619,-1.2612,-1.2559,-1.2551,-1.2548,-1.2551,-1.2517,-1.2516,-1.2516,-1.2516,-1.2582,-1.2584,0,0,0,0,0,0,-1.2774,-1.2761,-1.2723,-1.2719,-1.2721,-1.2674,-1.2665,-1.266,-1.2608,-1.2598,-1.2614,-1.2608,-1.2553,-1.2549,-1.2545,-1.2586,-1.2516,-1.2515,-1.2515,-1.258,-1.2582,-1.2585,0,0,0,0,0,0,-1.2775,-1.2771,-1.2726,-1.2738,-1.2731,-1.2675,-1.2671,-1.266,-1.2652,-1.26,-1.2589,-1.2617,-1.2552,-1.2546,-1.2555,-1.2583,-1.2515,-1.2515,-1.2577,-1.2581,-1.2584,-1.267,0,0,0,0,0,0,-1.2777,-1.2772,-1.2787,-1.2739,-1.273,-1.2737,-1.2672,-1.266,-1.2651,-1.2643,-1.2599,-1.259,-1.2549,-1.2556,-1.2554,-1.2581,-1.2514,-1.2574,-1.2579,-1.2583,-1.2664,-1.2675,-1.2685,0,0,0,0,0,-1.2779,-1.2815,-1.2788,-1.2784,-1.2748,-1.2739,-1.2734,-1.2686,-1.2654,-1.2668,-1.2634,-1.2592,-1.258,-1.2558,-1.2555,-1.2582,-1.2573,-1.2578,-1.2582,-1.2659,-1.2673,-1.2685,0,0,0,0,0,0,-1.2868,-1.2808,-1.2778,-1.2799,-1.2775,-1.2724,-1.274,-1.2702,-1.2687,-1.268,-1.2621,-1.2612,-1.2628,-1.2605,-1.2582,-1.2615,-1.257,-1.2574,-1.263,-1.2642,-1.2653,-1.2657,-1.2514,0,0,0,0,0,-1.289,-1.2888,-1.2835,-1.2859,-1.2848,-1.2797,-1.2791,-1.2756,-1.2728,-1.2718,-1.2684,-1.2659,-1.2649,-1.2645,-1.2633,-1.266,-1.2648,-1.2677,-1.2687,-1.2696,-1.2701,-1.2711,-1.2722,-1.2601,-1.2601,-1.2601,0,0,-1.2936,-1.2903,-1.2905,-1.2876,-1.2853,-1.2851,-1.2789,-1.279,-1.2788,-1.2718,-1.2724,-1.2698,-1.2666,-1.2684,-1.269,-1.2665,-1.2731,-1.2702,-1.271,-1.2709,-1.2717,-1.2728,-1.2739,-1.2604,-1.2603,-1.2603,0,0,-1.3018,-1.2993,-1.3009,-1.2987,-1.2953,-1.2918,-1.2922,-1.2876,-1.2856,-1.2861,-1.2807,-1.2804,-1.2789,-1.2768,-1.2755,-1.2827,-1.2786,-1.2825,-1.2879,-1.289,-1.2899,-1.2908,-1.2931,-1.2941,-1.2829,-1.2829,-1.283,0,-1.3079,-1.3075,-1.3023,-1.3027,-1.3015,-1.295,-1.2965,-1.2946,-1.291,-1.2903,-1.2877,-1.2855,-1.2829,-1.2839,-1.2856,-1.2849,-1.285,-1.2829,-1.2902,-1.291,-1.2917,-1.2939,-1.2948,-1.2834,-1.2834,-1.2833,-1.2833,0,-1.3151,-1.3149,-1.3166,-1.3131,-1.3121,-1.3131,-1.3079,-1.3075,-1.3041,-1.3008,-1.3013,-1.2979,-1.2958,-1.2958,-1.2925,-1.2963,-1.2949,-1.2913,-1.2866,-1.2934,-1.2953,-1.2962,-1.2841,-1.2839,-1.2838,-1.2837,0,0,-1.3289,-1.3223,-1.3231,-1.3213,-1.3169,-1.3166,-1.3172,-1.3151,-1.3148,-1.3125,-1.3128,-1.3115,-1.3081,-1.3067,-1.303,-1.304,-1.3096,-1.3002,-1.3001,-1.302,-1.3133,-1.3159,-1.317,-1.3069,-1.307,-1.3072,-1.3135,0,-1.3362,-1.3368,-1.332,-1.334,-1.3336,-1.3273,-1.3278,-1.3251,-1.3221,-1.3212,-1.3178,-1.317,-1.3127,-1.3117,-1.3124,-1.3088,-1.3118,-1.3083,-1.307,-1.307,-1.3079,-1.3181,-1.3209,-1.3271,-1.3143,-1.3144,-1.3145,0,-1.3448,-1.3428,-1.3447,-1.34,-1.3397,-1.3402,-1.3378,-1.3371,-1.3339,-1.3315,-1.3298,-1.3256,-1.3257,-1.3212,-1.3212,-1.3189,-1.3181,-1.3162,-1.3163,-1.316,-1.3111,-1.3178,-1.329,-1.3298,-1.3157,-1.3156,-1.3155,0,-1.3545,-1.3523,-1.353,-1.3518,-1.3464,-1.3469,-1.3446,-1.3412,-1.3401,-1.338,-1.3372,-1.3352,-1.334,-1.3324,-1.3277,-1.3249,-1.3281,-1.3234,-1.3261,-1.3262,-1.327,-1.327,-1.3381,-1.3267,-1.3267,-1.3267,-1.3267,0,-1.3631,-1.3644,-1.3573,-1.3578,-1.359,-1.3534,-1.3548,-1.352,-1.3489,-1.3486,-1.3431,-1.3429,-1.3367,-1.3358,-1.3321,-1.3325,-1.3321,-1.3301,-1.3291,-1.3305,-1.3308,-1.3298,-1.3292,-1.3269,-1.3269,-1.3268,-1.3268,0,-1.3741,-1.3694,-1.3698,-1.3645,-1.3633,-1.3644,-1.3599,-1.36,-1.3566,-1.3562,-1.3559,-1.3504,-1.349,-1.3441,-1.3416,-1.339,-1.3406,-1.3387,-1.3417,-1.341,-1.3439,-1.3437,-1.3547,-1.3557,-1.3439,-1.344,-1.3441,0,-1.3798,-1.3807,-1.3755,-1.3749,-1.3729,-1.3721,-1.3709,-1.3654,-1.3644,-1.3606,-1.3612,-1.3594,-1.3576,-1.3557,-1.3514,-1.3494,-1.3473,-1.3513,-1.347,-1.3483,-1.3471,-1.3471,-1.347,-1.3522,-1.3524,-1.3525,-1.3526,0,-1.3905,-1.3881,-1.3867,-1.3844,-1.3832,-1.3811,-1.3787,-1.3785,-1.3723,-1.3715,-1.37,-1.3686,-1.3659,-1.3641,-1.3613,-1.3589,-1.3547,-1.354,-1.3545,-1.3559,-1.3575,-1.3565,-1.3441,-1.3538,-1.3536,-1.3536,-1.3535,-1.3534,-1.3989,-1.3993,-1.3957,-1.3942,-1.3918,-1.3897,-1.3895,-1.3859,-1.3846,-1.3819,-1.3787,-1.3775,-1.374,-1.3698,-1.3677,-1.3666,-1.3643,-1.3651,-1.3652,-1.3655,-1.3661,-1.3578,-1.3661,-1.366,-1.366,-1.3659,-1.3659,0,-1.4092,-1.4065,-1.4052,-1.402,-1.4008,-1.3969,-1.394,-1.3932,-1.3922,-1.3893,-1.3876,-1.3858,-1.3839,-1.3794,-1.3771,-1.3771,-1.3751,-1.3766,-1.3765,-1.376,-1.3684,-1.3681,-1.3783,-1.3783,-1.3783,-1.3783,-1.3783,-1.3783,-1.4143,-1.4147,-1.4118,-1.4109,-1.4081,-1.4069,-1.4056,-1.4035,-1.4011,-1.3992,-1.3977,-1.3947,-1.3911,-1.3884,-1.3865,-1.3852,-1.3845,-1.3867,-1.3848,-1.3777,-1.3765,-1.3754,-1.3751,-1.3866,-1.3866,-1.3924,-1.3925,-1.3925]},{"header":{"parameterUnit":"m.s-1","parameterCategory":1,"la1":30.2991,"la2":30.254,"lo1":-89.0895,"lo2":-89.0444,"dy":0.0017,"dx":0.0017,"nx":28,"ny":28,"refTime":"2023-09-12T21:00:00:Z","depth":0,"parameterNumber":3,"parameterNumberName":"V-component_of_WINDS"},"data":[0,0,0,0,0,0,0,0,0,0,0,0,0,0,0,0,0,0,0,0,0,0,0,0,0,0,0,0,0,0,0,0,0,0,0,0,0,0,0,0,0,0,0,0,0,0,0,0,0,0,0,0,0,0,0,0,0,0,-3.7949,-3.795,0,-3.8008,-3.8009,-3.801,-3.8009,-3.8009,-3.8008,-3.8007,-3.8064,-3.8066,-3.8068,0,0,0,0,0,0,0,0,0,0,0,0,0,-3.7831,-3.7833,-3.7949,-3.795,-3.7951,-3.8008,-3.8009,-3.801,-3.8009,-3.8009,-3.8008,-3.8007,-3.8063,-3.8066,-3.8068,0,0,0,0,0,0,0,0,0,0,0,0,0,-3.7885,-3.7834,-3.7949,-3.7958,-3.7959,-3.8008,-3.8009,-3.801,-3.801,-3.8009,-3.8007,-3.8006,-3.8062,-3.8065,-3.8069,-3.8112,0,0,-3.8079,-3.808,0,0,0,0,0,0,0,0,-3.7882,-3.789,-3.7956,-3.7957,-3.7959,-3.8,-3.7988,-3.8044,-3.801,-3.799,-3.8007,-3.8006,-3.8043,-3.8048,-3.8062,-3.8115,-3.8117,-3.8079,-3.8081,-3.8083,-3.8084,0,0,0,0,0,0,0,-3.7878,-3.7887,-3.7973,-3.7957,-3.7958,-3.7957,-3.7963,-3.7999,-3.8022,-3.7992,-3.7992,-3.7999,-3.8044,-3.8058,-3.8063,-3.8118,-3.8079,-3.8082,-3.8084,-3.8086,-3.8207,-3.8208,0,0,0,0,0,0,-3.7874,-3.7884,-3.7971,-3.7974,-3.7917,-3.796,-3.7967,-3.7988,-3.8022,-3.8026,-3.8,-3.7999,-3.8053,-3.8059,-3.8065,-3.8116,-3.8083,-3.8086,-3.8088,-3.8205,-3.8207,-3.8208,0,0,0,0,0,0,-3.7871,-3.7881,-3.7968,-3.7929,-3.794,-3.7963,-3.7987,-3.799,-3.8004,-3.8028,-3.8032,-3.8011,-3.8053,-3.806,-3.81,-3.8118,-3.8087,-3.809,-3.8204,-3.8206,-3.8208,-3.822,0,0,0,0,0,0,-3.7868,-3.788,-3.7899,-3.793,-3.7942,-3.8004,-3.7988,-3.7992,-3.8011,-3.801,-3.8039,-3.8043,-3.8052,-3.8095,-3.8103,-3.8122,-3.8093,-3.8202,-3.8205,-3.8207,-3.8218,-3.8222,-3.8225,0,0,0,0,0,-3.7863,-3.79,-3.79,-3.791,-3.7966,-3.8005,-3.8012,-3.8023,-3.8012,-3.8029,-3.8044,-3.8042,-3.8115,-3.8099,-3.8109,-3.8128,-3.8201,-3.8204,-3.8207,-3.8216,-3.8221,-3.8225,0,0,0,0,0,0,-3.7869,-3.7904,-3.7904,-3.7952,-3.7976,-3.8005,-3.8027,-3.8028,-3.8055,-3.8052,-3.8064,-3.807,-3.8109,-3.8123,-3.8105,-3.8171,-3.8157,-3.8161,-3.816,-3.8165,-3.8169,-3.8164,-3.8096,0,0,0,0,0,-3.7876,-3.7907,-3.7935,-3.7974,-3.7986,-3.8005,-3.8022,-3.8028,-3.8053,-3.8063,-3.8081,-3.8103,-3.8131,-3.8149,-3.8176,-3.822,-3.8225,-3.8238,-3.8242,-3.8244,-3.8248,-3.8269,-3.8275,-3.8217,-3.8217,-3.8217,0,0,-3.7891,-3.7913,-3.7932,-3.7976,-3.7995,-3.8024,-3.8013,-3.8045,-3.8067,-3.8067,-3.8106,-3.8119,-3.8145,-3.8186,-3.8206,-3.8199,-3.8265,-3.8248,-3.825,-3.8252,-3.8273,-3.8278,-3.8283,-3.8219,-3.8219,-3.8219,0,0,-3.7932,-3.7953,-3.7987,-3.8006,-3.8035,-3.8047,-3.8055,-3.8084,-3.8093,-3.8132,-3.8133,-3.8157,-3.8206,-3.8223,-3.8238,-3.8284,-3.8282,-3.8292,-3.8311,-3.8331,-3.8336,-3.834,-3.8354,-3.8359,-3.8296,-3.8296,-3.8296,0,-3.7946,-3.7992,-3.8004,-3.8036,-3.8054,-3.8056,-3.8089,-3.8107,-3.8143,-3.8154,-3.8147,-3.8205,-3.8223,-3.8267,-3.8278,-3.8291,-3.8299,-3.8288,-3.8335,-3.8339,-3.8343,-3.8356,-3.8361,-3.8297,-3.8297,-3.8296,-3.8296,0,-3.8006,-3.8038,-3.8061,-3.8096,-3.8117,-3.8149,-3.8164,-3.8183,-3.8187,-3.8199,-3.8237,-3.8258,-3.8288,-3.8299,-3.8303,-3.8343,-3.8338,-3.8333,-3.8318,-3.8349,-3.8361,-3.8367,-3.8298,-3.8298,-3.8297,-3.8297,0,0,-3.8053,-3.8093,-3.8102,-3.8116,-3.8148,-3.8171,-3.8202,-3.8233,-3.8248,-3.8272,-3.8297,-3.8336,-3.8331,-3.8348,-3.8354,-3.8372,-3.8404,-3.8364,-3.8365,-3.8369,-3.8446,-3.8449,-3.8455,-3.8403,-3.8404,-3.8405,-3.8443,0,-3.8096,-3.8152,-3.8163,-3.8211,-3.8239,-3.8241,-3.8267,-3.8288,-3.83,-3.8323,-3.8336,-3.8363,-3.8355,-3.8365,-3.8383,-3.8396,-3.8419,-3.8394,-3.8424,-3.8425,-3.8416,-3.8462,-3.8465,-3.85,-3.8448,-3.8449,-3.845,0,-3.8154,-3.8179,-3.8231,-3.8256,-3.8268,-3.8292,-3.8319,-3.8343,-3.8365,-3.8372,-3.839,-3.8394,-3.8423,-3.8409,-3.8448,-3.8431,-3.8444,-3.8452,-3.8453,-3.8455,-3.8438,-3.8463,-3.8512,-3.8516,-3.8458,-3.8457,-3.8457,0,-3.818,-3.8227,-3.8264,-3.8276,-3.8308,-3.8324,-3.8337,-3.8359,-3.8376,-3.8399,-3.8409,-3.8436,-3.845,-3.8469,-3.8478,-3.8467,-3.8516,-3.8503,-3.8521,-3.852,-3.853,-3.8529,-3.858,-3.8541,-3.8541,-3.8541,-3.8541,0,-3.8226,-3.8256,-3.8275,-3.8298,-3.8331,-3.8342,-3.8374,-3.8387,-3.8406,-3.8429,-3.8432,-3.8453,-3.8465,-3.8487,-3.8495,-3.8525,-3.8532,-3.8536,-3.8538,-3.8535,-3.8534,-3.8543,-3.854,-3.8543,-3.8542,-3.8542,-3.8542,0,-3.8261,-3.8275,-3.8314,-3.834,-3.8347,-3.837,-3.8392,-3.8412,-3.8423,-3.8452,-3.8459,-3.8476,-3.8502,-3.8513,-3.8545,-3.855,-3.8584,-3.8585,-3.8577,-3.8577,-3.8593,-3.8591,-3.865,-3.8657,-3.8615,-3.8616,-3.8616,0,-3.8288,-3.8312,-3.834,-3.8356,-3.837,-3.8396,-3.8412,-3.8423,-3.844,-3.8467,-3.8483,-3.851,-3.8531,-3.8572,-3.8586,-3.861,-3.861,-3.8629,-3.8614,-3.861,-3.8608,-3.8606,-3.8607,-3.8631,-3.8632,-3.8632,-3.8632,0,-3.8335,-3.834,-3.8365,-3.8392,-3.8411,-3.8433,-3.8454,-3.8466,-3.848,-3.8498,-3.8525,-3.8542,-3.8574,-3.8599,-3.8624,-3.8636,-3.8635,-3.8637,-3.8642,-3.8639,-3.8633,-3.8634,-3.8582,-3.8636,-3.8635,-3.8635,-3.8635,-3.8635,-3.8366,-3.8385,-3.8408,-3.8434,-3.8451,-3.847,-3.849,-3.8503,-3.8526,-3.8553,-3.8558,-3.8586,-3.8606,-3.8639,-3.8651,-3.8672,-3.8667,-3.8675,-3.8677,-3.8678,-3.8678,-3.8631,-3.8677,-3.8677,-3.8677,-3.8677,-3.8677,0,-3.841,-3.8425,-3.8449,-3.8478,-3.8498,-3.8497,-3.8519,-3.8536,-3.8561,-3.858,-3.86,-3.863,-3.8654,-3.8669,-3.8693,-3.8707,-3.8707,-3.8712,-3.871,-3.8713,-3.8682,-3.8675,-3.8711,-3.8711,-3.8711,-3.8711,-3.8711,-3.8711,-3.8436,-3.8469,-3.8477,-3.8517,-3.8531,-3.8559,-3.8571,-3.8587,-3.8602,-3.8635,-3.8656,-3.8666,-3.8682,-3.8707,-3.8728,-3.8732,-3.8739,-3.8745,-3.8748,-3.8719,-3.8715,-3.8712,-3.8704,-3.8747,-3.8747,-3.8776,-3.8777,-3.8777]}]]